Powrót do katalogu

STARLINK-5045

AktywnyŁącznośćVLEO
NORAD 53900·PAYLOAD·🇺🇸 United States

Wystrzelony Sep 24, 2022 z Cape Canaveral Space Force Station

Loading…

Następne Przeloty (najbliższe 24 godziny)

TLE

ŚwieżeSource: CelesTrak SupGP

Epoka: Sep 14, 2026, 22:18 UTC

1 53900C 22119Q   26257.92965278  .00387020  00000+0  11608-1 0  2575
2 53900  53.1595 189.5351 0001504  93.2334  14.5317 15.33723390    11

Śledź STARLINK-5045 w czasie rzeczywistym z AllMySat

Download on the App Store